• In Czech Republic
  • List of Countries
  • For 7 days
  • Water Temperature
  • Satellite Maps
  • Weather Map
  • Weather Widgets
  • user-avatar
    Login

    Hourly Weather Yeovil

    Today, 18 July, Wednesday

    Time Temperature Precipitation Wind Pressure Humidity
    00:00 +14°C° 0 mm 2 mps 756 mmHg 90%
    01:00 +14°C° 0 mm 2 mps 755 mmHg 91%
    02:00 +14°C° 0 mm 2 mps 755 mmHg 91%
    03:00 +14°C° 0 mm 2 mps 755 mmHg 91%
    04:00 +14°C° 0 mm 2 mps 755 mmHg 90%
    05:00 +15°C° 0 mm 2 mps 755 mmHg 88%
    06:00 +16°C° 0 mm 2 mps 756 mmHg 86%
    07:00 +17°C° 0.1 mm 2 mps 756 mmHg 82%
    08:00 +18°C° 0.1 mm 2 mps 756 mmHg 79%
    09:00 +19°C° 0.1 mm 3 mps 756 mmHg 76%
    10:00 +19°C° 0.1 mm 3 mps 756 mmHg 72%
    11:00 +20°C° 0.1 mm 3 mps 756 mmHg 68%
    12:00 +21°C° 0.1 mm 3 mps 757 mmHg 64%
    13:00 +21°C° 0 mm 3 mps 757 mmHg 61%
    14:00 +22°C° 0 mm 3 mps 757 mmHg 58%
    15:00 +22°C° 0 mm 3 mps 756 mmHg 55%
    16:00 +22°C° 0 mm 3 mps 756 mmHg 58%
    17:00 +21°C° 0 mm 3 mps 756 mmHg 62%
    18:00 +21°C° 0 mm 3 mps 756 mmHg 65%
    19:00 +19°C° 0 mm 2 mps 757 mmHg 71%
    20:00 +18°C° 0 mm 2 mps 757 mmHg 78%
    21:00 +16°C° 0 mm 2 mps 757 mmHg 85%
    22:00 +15°C° 0 mm 2 mps 757 mmHg 86%
    23:00 +15°C° 0 mm 1 mps 757 mmHg 87%

    Tomorrow, 19 July, Thursday

    Time Temperature Precipitation Wind Pressure Humidity
    00:00 +14°C° 0 mm 1 mps 757 mmHg 89%
    01:00 +14°C° 0 mm 1 mps 757 mmHg 89%
    02:00 +14°C° 0 mm 1 mps 757 mmHg 89%
    03:00 +13°C° 0 mm 1 mps 757 mmHg 88%
    04:00 +14°C° 0 mm 1 mps 757 mmHg 86%
    05:00 +15°C° 0 mm 1 mps 757 mmHg 83%
    06:00 +15°C° 0 mm 1 mps 757 mmHg 81%
    07:00 +18°C° 0 mm 1 mps 757 mmHg 74%
    08:00 +20°C° 0 mm 1 mps 757 mmHg 68%
    09:00 +22°C° 0 mm 1 mps 757 mmHg 61%
    10:00 +23°C° 0 mm 1 mps 757 mmHg 58%
    11:00 +24°C° 0 mm 1 mps 757 mmHg 54%
    12:00 +25°C° 0 mm 1 mps 757 mmHg 50%
    13:00 +25°C° 0 mm 1 mps 757 mmHg 51%
    14:00 +25°C° 0 mm 2 mps 757 mmHg 52%
    15:00 +24°C° 0 mm 2 mps 756 mmHg 53%
    16:00 +24°C° 0 mm 2 mps 756 mmHg 55%
    17:00 +24°C° 0 mm 2 mps 756 mmHg 57%
    18:00 +23°C° 0 mm 2 mps 756 mmHg 59%
    19:00 +21°C° 0 mm 2 mps 756 mmHg 66%
    20:00 +19°C° 0 mm 2 mps 756 mmHg 74%
    21:00 +17°C° 0 mm 2 mps 756 mmHg 81%
    22:00 +16°C° 0 mm 3 mps 756 mmHg 83%
    23:00 +16°C° 0 mm 3 mps 756 mmHg 86%

    Day after tomorrow, 20 July, Friday

    Time Temperature Precipitation Wind Pressure Humidity
    00:00 +14°C° 0 mm 3 mps 756 mmHg 89%
    01:00 +14°C° 0 mm 3 mps 756 mmHg 89%
    02:00 +13°C° 0 mm 3 mps 755 mmHg 90%
    03:00 +14°C° 0 mm 2 mps 755 mmHg 91%
    04:00 +14°C° 0 mm 2 mps 755 mmHg 89%
    05:00 +15°C° 0 mm 2 mps 755 mmHg 87%
    06:00 +15°C° 0 mm 2 mps 755 mmHg 85%
    07:00 +17°C° 0 mm 2 mps 755 mmHg 77%
    08:00 +19°C° 0 mm 2 mps 755 mmHg 69%
    09:00 +21°C° 0 mm 2 mps 755 mmHg 61%
    10:00 +23°C° 0 mm 2 mps 755 mmHg 57%
    11:00 +24°C° 0 mm 2 mps 755 mmHg 53%
    12:00 +25°C° 0 mm 3 mps 755 mmHg 49%
    13:00 +25°C° 0 mm 3 mps 755 mmHg 49%
    14:00 +25°C° 0 mm 3 mps 755 mmHg 48%
    15:00 +25°C° 0 mm 4 mps 754 mmHg 48%
    16:00 +23°C° 0 mm 4 mps 754 mmHg 51%
    17:00 +23°C° 0 mm 4 mps 754 mmHg 55%
    18:00 +22°C° 0 mm 5 mps 754 mmHg 59%
    19:00 +20°C° 0 mm 4 mps 754 mmHg 68%
    20:00 +18°C° 0 mm 4 mps 754 mmHg 76%
    21:00 +15°C° 0 mm 4 mps 754 mmHg 85%
    22:00 +15°C° 0 mm 4 mps 754 mmHg 88%
    23:00 +15°C° 0 mm 4 mps 754 mmHg 90%

    21 July, Saturday

    Time Temperature Precipitation Wind Pressure Humidity
    00:00 +14°C° 0 mm 3 mps 754 mmHg 93%
    01:00 +14°C° 0 mm 3 mps 754 mmHg 93%
    02:00 +14°C° 0 mm 3 mps 754 mmHg 94%
    03:00 +16°C° 0 mm 3 mps 754 mmHg 94%
    04:00 +16°C° 0 mm 3 mps 754 mmHg 93%
    05:00 +17°C° 0 mm 2 mps 754 mmHg 92%
    06:00 +17°C° 0 mm 2 mps 754 mmHg 90%
    07:00 +18°C° 0.1 mm 3 mps 754 mmHg 86%
    08:00 +19°C° 0.1 mm 3 mps 755 mmHg 82%
    09:00 +20°C° 0.1 mm 3 mps 755 mmHg 77%
    10:00 +21°C° 0.1 mm 4 mps 755 mmHg 72%
    11:00 +22°C° 0.1 mm 4 mps 755 mmHg 67%
    12:00 +23°C° 0.1 mm 4 mps 755 mmHg 63%
    13:00 +25°C° 0.1 mm 5 mps 755 mmHg 60%
    14:00 +25°C° 0.1 mm 5 mps 755 mmHg 58%
    15:00 +25°C° 0.1 mm 5 mps 755 mmHg 56%
    16:00 +25°C° 0 mm 5 mps 755 mmHg 56%
    17:00 +23°C° 0 mm 6 mps 755 mmHg 57%
    18:00 +22°C° 0 mm 6 mps 755 mmHg 57%
    19:00 +20°C° 0 mm 5 mps 755 mmHg 63%
    20:00 +19°C° 0 mm 5 mps 756 mmHg 69%
    21:00 +17°C° 0 mm 4 mps 756 mmHg 76%
    22:00 +15°C° 0 mm 4 mps 756 mmHg 81%
    23:00 +14°C° 0 mm 4 mps 756 mmHg 86%

    22 July, Sunday

    Time Temperature Precipitation Wind Pressure Humidity
    00:00 +14°C° 0 mm 4 mps 756 mmHg 91%
    01:00 +13°C° 0 mm 3 mps 756 mmHg 92%
    02:00 +13°C° 0 mm 3 mps 756 mmHg 92%
    03:00 +13°C° 0 mm 3 mps 756 mmHg 93%
    04:00 +14°C° 0 mm 2 mps 756 mmHg 90%
    05:00 +15°C° 0 mm 2 mps 756 mmHg 87%
    06:00 +16°C° 0 mm 2 mps 757 mmHg 85%
    07:00 +17°C° 0 mm 2 mps 757 mmHg 77%
    08:00 +19°C° 0 mm 2 mps 757 mmHg 69%
    09:00 +21°C° 0 mm 2 mps 757 mmHg 62%
    10:00 +23°C° 0 mm 2 mps 757 mmHg 59%
    11:00 +24°C° 0 mm 3 mps 757 mmHg 56%
    12:00 +26°C° 0 mm 3 mps 757 mmHg 53%
    13:00 +26°C° 0 mm 3 mps 757 mmHg 54%
    14:00 +26°C° 0 mm 4 mps 757 mmHg 54%
    15:00 +26°C° 0 mm 4 mps 757 mmHg 54%
    16:00 +26°C° 0 mm 4 mps 757 mmHg 57%
    17:00 +25°C° 0 mm 4 mps 757 mmHg 60%
    18:00 +23°C° 0 mm 4 mps 756 mmHg 63%
    19:00 +21°C° 0 mm 4 mps 757 mmHg 70%
    20:00 +19°C° 0 mm 3 mps 757 mmHg 77%
    21:00 +17°C° 0 mm 3 mps 757 mmHg 85%
    22:00 +17°C° 0 mm 3 mps 757 mmHg 87%
    23:00 +16°C° 0 mm 3 mps 757 mmHg 90%

    23 July, Monday

    Time Temperature Precipitation Wind Pressure Humidity
    00:00 +14°C° 0 mm 3 mps 756 mmHg 92%
    01:00 +15°C° 0 mm 2 mps 756 mmHg 93%
    02:00 +15°C° 0 mm 2 mps 756 mmHg 93%
    03:00 +15°C° 0 mm 2 mps 756 mmHg 94%
    04:00 +15°C° 0 mm 1 mps 756 mmHg 92%
    05:00 +16°C° 0 mm 1 mps 756 mmHg 90%
    06:00 +16°C° 0 mm 1 mps 756 mmHg 88%
    07:00 +19°C° 0 mm 1 mps 755 mmHg 81%
    08:00 +21°C° 0 mm 1 mps 755 mmHg 74%
    09:00 +22°C° 0 mm 1 mps 755 mmHg 67%
    10:00 +23°C° 0 mm 2 mps 755 mmHg 66%
    11:00 +23°C° 0 mm 2 mps 755 mmHg 65%
    12:00 +23°C° 0 mm 2 mps 755 mmHg 63%
    13:00 +23°C° 0 mm 2 mps 754 mmHg 63%
    14:00 +24°C° 0 mm 2 mps 754 mmHg 62%
    15:00 +24°C° 0 mm 2 mps 754 mmHg 61%
    16:00 +24°C° 0 mm 2 mps 754 mmHg 62%
    17:00 +24°C° 0 mm 2 mps 754 mmHg 63%
    18:00 +23°C° 0 mm 2 mps 754 mmHg 64%
    19:00 +21°C° 0 mm 2 mps 753 mmHg 71%
    20:00 +19°C° 0 mm 2 mps 753 mmHg 78%
    21:00 +18°C° 0 mm 1 mps 753 mmHg 85%
    22:00 +16°C° 0 mm 1 mps 753 mmHg 86%
    23:00 +16°C° 0 mm 1 mps 753 mmHg 88%
    Show more